This is the latest recevied weather packets stored in our database for station/object HA2SKA-1. If no packets are shown the sender has not sent any weather packets the latest 10 day(s).
| Time | Temp. | Humidity | Pressure | Rain* | Wind** | Luminosity | Snow |
|---|---|---|---|---|---|---|---|
| 1788642311 | 20° C | 100% | 1024.7 hPa | - | - | - | - |
| 1788641410 | 19.44° C | 100% | 1024.6 hPa | - | - | - | - |
| 1788640510 | 18.33° C | 100% | 1024.6 hPa | - | - | - | - |
| 1788639610 | 18.89° C | 100% | 1024.6 hPa | - | - | - | - |
| 1788638710 | 20.56° C | 100% | 1024.5 hPa | - | - | - | - |
| 1788637810 | 18.89° C | 100% | 1024.3 hPa | - | - | - | - |
| 1788636910 | 20° C | 100% | 1024.2 hPa | - | - | - | - |
| 1788636010 | 21.67° C | 100% | 1024 hPa | - | - | - | - |
| 1788635140 | 21.67° C | 100% | 1023.7 hPa | - | - | - | - |
| 1788634210 | 21.67° C | 100% | 1023.4 hPa | - | - | - | - |
| 1788633310 | 18.89° C | 100% | 1023.3 hPa | - | - | - | - |
| 1788632410 | 22.22° C | 100% | 1023.2 hPa | - | - | - | - |
| 1788631509 | 22.22° C | 100% | 1023 hPa | - | - | - | - |
| 1788630609 | 21.67° C | 100% | 1022.8 hPa | - | - | - | - |
| 1788629709 | 21.11° C | 100% | 1022.5 hPa | - | - | - | - |
| 1788628809 | 21.67° C | 100% | 1022.3 hPa | - | - | - | - |
| 1788627909 | 24.44° C | 100% | 1022.2 hPa | - | - | - | - |
| 1788627009 | 24.44° C | 100% | 1022.2 hPa | - | - | - | - |
| 1788626109 | 25.56° C | 100% | 1022 hPa | - | - | - | - |
| 1788625209 | 25° C | 100% | 1022 hPa | - | - | - | - |
| 1788624309 | 25° C | 100% | 1022 hPa | - | - | - | - |
| 1788623409 | 24.44° C | 100% | 1021.9 hPa | - | - | - | - |
| 1788622508 | 25° C | 100% | 1022 hPa | - | - | - | - |
| 1788621608 | 25° C | 100% | 1022 hPa | - | - | - | - |
| 1788620712 | 22.78° C | 100% | 1022.1 hPa | - | - | - | - |
* Rain since midnight (hover to see other rain measurements)
** Current wind speed in m/s (hover to see current wind gust speed)